Location: Hradec Kralove
(50.2170°N, 15.8330°E)
Time: 19:35:45
(UTC+01:00)

A-11 Canister half - All Passes

Search period start: 07 February 2023 00:00
Search period end: 17 February 2023 00:00
Orbit: 1514 x 1686 km, 47.2° (Epoch: 06 February)

Date Brightness Start Highest point End Pass type
(mag) Time Alt. Az. Time Alt. Az. Time Alt. Az.
07 Feb - 07:54:57 10° SSE 08:00:41 17° SE 08:06:18 10° E daylight
07 Feb - 09:54:36 10° SW 10:03:47 46° SSE 10:12:39 10° E daylight
07 Feb - 11:58:21 10° WSW 12:08:01 73° S 12:17:21 10° E daylight
07 Feb - 14:03:10 10° W 14:12:37 68° SSW 14:21:47 10° ESE daylight
07 Feb - 16:08:11 10° W 16:16:29 37° SW 16:24:38 10° SSE daylight
07 Feb - 18:17:56 10° WSW 18:19:02 10° WSW 18:20:07 10° SW visible
08 Feb - 07:32:33 10° SSE 07:37:52 16° SE 07:43:05 10° E daylight
08 Feb - 09:31:47 10° SW 09:40:53 44° SSE 09:49:43 10° E daylight
08 Feb - 11:35:24 10° WSW 11:45:05 72° S 11:54:26 10° E daylight
08 Feb - 13:40:12 10° W 13:49:42 69° SSW 13:58:54 10° ESE daylight
08 Feb - 15:45:12 10° W 15:53:38 39° SW 16:01:54 10° SSE daylight
08 Feb - 17:53:38 10° WSW 17:56:15 11° WSW 17:58:53 10° SW visible
09 Feb - 07:10:12 10° SSE 07:15:03 15° SE 07:19:49 10° E daylight
09 Feb - 09:08:56 10° SSW 09:18:00 43° SE 09:26:47 10° E daylight
09 Feb - 11:12:27 10° WSW 11:22:10 71° SSE 11:31:31 10° E daylight
09 Feb - 13:17:14 10° W 13:26:48 70° SSW 13:36:02 10° ESE daylight
09 Feb - 15:22:13 10° W 15:30:47 40° SW 15:39:09 10° SSE daylight
09 Feb - 17:29:57 10° W 17:33:29 13° SW 17:36:59 10° SSW visible
10 Feb - 06:47:57 10° SSE 06:52:14 14° SE 06:56:27 10° E visible
10 Feb - 08:46:08 10° SSW 08:55:07 41° SE 09:03:50 10° E daylight
10 Feb - 10:49:30 10° WSW 10:59:14 70° SSE 11:08:37 10° E daylight
10 Feb - 12:54:16 10° W 13:03:51 71° SSW 13:13:08 10° ESE daylight
10 Feb - 14:59:14 10° W 15:07:55 42° SW 15:16:24 10° SSE daylight
10 Feb - 17:06:29 10° W 17:10:42 14° SW 17:14:52 10° SSW daylight
11 Feb - 06:25:50 10° SE 06:29:26 12° ESE 06:32:59 10° ESE visible
11 Feb - 08:23:19 10° SSW 08:32:14 39° SE 08:40:53 10° E daylight
11 Feb - 10:26:32 10° WSW 10:36:18 69° SSE 10:45:42 10° E daylight
11 Feb - 12:31:19 10° W 12:40:57 72° S 12:50:14 10° ESE daylight
11 Feb - 14:36:16 10° W 14:45:04 44° SSW 14:53:37 10° SE daylight
11 Feb - 16:43:08 10° W 16:47:54 15° SW 16:52:38 10° SSW daylight
12 Feb - 06:03:58 10° SE 06:06:37 11° ESE 06:09:16 10° ESE visible
12 Feb - 08:00:32 10° SSW 08:09:22 38° SE 08:17:56 10° E daylight
12 Feb - 10:03:37 10° WSW 10:13:22 68° SSE 10:22:47 10° E daylight
12 Feb - 12:08:20 10° W 12:18:01 73° S 12:27:21 10° ESE daylight
12 Feb - 14:13:17 10° W 14:22:12 46° SSW 14:30:51 10° SE daylight
12 Feb - 16:19:52 10° W 16:25:07 16° SW 16:30:19 10° SSW daylight
13 Feb - 05:42:48 10° SE 05:43:50 10° ESE 05:44:50 10° ESE visible
13 Feb - 07:37:45 10° SSW 07:46:29 36° SE 07:54:58 10° E daylight
13 Feb - 09:40:40 10° WSW 09:50:26 67° SSE 09:59:52 10° E daylight
13 Feb - 11:45:22 10° W 11:55:05 74° S 12:04:26 10° ESE daylight
13 Feb - 13:50:18 10° W 13:59:19 48° SSW 14:08:04 10° SE daylight
13 Feb - 15:56:38 10° W 16:02:19 18° SW 16:07:55 10° SSW daylight
14 Feb - 07:14:58 10° SSW 07:23:36 34° SE 07:31:59 10° E daylight
14 Feb - 09:17:43 10° WSW 09:27:31 66° SSE 09:36:56 10° E daylight
14 Feb - 11:22:23 10° W 11:32:09 75° S 11:41:32 10° ESE daylight
14 Feb - 13:27:20 10° W 13:36:26 50° SSW 13:45:16 10° SE daylight
14 Feb - 15:33:28 10° W 15:39:31 19° SW 15:45:29 10° S daylight
15 Feb - 06:52:14 10° SSW 07:00:44 33° SE 07:09:01 10° E daylight
15 Feb - 08:54:47 10° WSW 09:04:35 64° SSE 09:14:01 10° E daylight
15 Feb - 10:59:24 10° W 11:09:12 75° S 11:18:38 10° ESE daylight
15 Feb - 13:04:21 10° W 13:13:33 52° SSW 13:22:27 10° SE daylight
15 Feb - 15:10:19 10° W 15:16:42 21° SW 15:23:01 10° S daylight
16 Feb - 06:29:30 10° SSW 06:37:51 31° SE 06:46:01 10° E visible
16 Feb - 08:31:51 10° WSW 08:41:39 63° SSE 08:51:06 10° E daylight
16 Feb - 10:36:26 10° W 10:46:16 76° S 10:55:44 10° E daylight
16 Feb - 12:41:23 10° W 12:50:40 54° SSW 12:59:38 10° SE daylight
16 Feb - 14:47:11 10° W 14:53:54 22° SW 15:00:30 10° S daylight
